EFW5SL LPPR-EGKK

Flight info

Callsign EFW5SL
Flight time 1h 40m
Altitude 34000
Route TURON9E TURON P600 ASDEB DCT KORUL DCT FEJAC DCT JSY DCT REVTU/N0422F280 UP88 ODREP/N0398F240 P88 VASUX VASUX1G
Aircraft A321/M-SDE3FGIJ1KRWXY/SB1

Departure

Time 2026-05-04 10:54
Airport Francisco de Sá Carneiro Airport (LPPR)

Arrival

Time 2026-05-04 12:34
Airport London Gatwick Airport (EGKK)
Time Latitude Longitude Altitude Speed Heading
2026-05-04 09:26 41.23505 -8.67281 243 ft 0 kts 114°
2026-05-04 10:45 41.23507 -8.67284 242 ft 3 kts 114°
2026-05-04 10:46 41.23517 -8.67316 242 ft 4 kts 116°
2026-05-04 10:46 41.23530 -8.67348 240 ft 4 kts 128°
2026-05-04 10:46 41.23547 -8.67367 239 ft 4 kts 181°
2026-05-04 10:46 41.23554 -8.67367 239 ft 0 kts 207°
2026-05-04 10:49 41.23542 -8.67375 239 ft 0 kts 206°
2026-05-04 10:50 41.23528 -8.67384 238 ft 5 kts 205°
2026-05-04 10:51 41.23298 -8.67659 238 ft 6 kts 258°
2026-05-04 10:52 41.23295 -8.67698 239 ft 4 kts 277°
2026-05-04 10:52 41.23340 -8.67739 239 ft 13 kts 342°
2026-05-04 10:52 41.23374 -8.67749 239 ft 0 kts 348°
2026-05-04 10:54 41.27244 -8.68774 1421 ft 178 kts 346°
2026-05-04 10:54 41.29015 -8.69271 1905 ft 208 kts 346°
2026-05-04 10:56 41.41077 -8.72370 5936 ft 267 kts 348°
2026-05-04 10:56 41.42951 -8.72568 6597 ft 273 kts
2026-05-04 10:56 41.44842 -8.72173 7251 ft 277 kts
2026-05-04 10:57 41.46745 -8.71689 7922 ft 279 kts
2026-05-04 10:57 41.48668 -8.71212 8536 ft 284 kts
2026-05-04 10:57 41.50624 -8.70715 9140 ft 289 kts
2026-05-04 10:57 41.52611 -8.70207 9753 ft 293 kts
2026-05-04 10:58 41.54631 -8.69692 10306 ft 299 kts
2026-05-04 10:58 41.56752 -8.69153 10433 ft 321 kts
2026-05-04 10:58 41.59010 -8.68578 10562 ft 340 kts
2026-05-04 10:58 41.61401 -8.67970 10732 ft 357 kts
2026-05-04 10:59 41.62493 -8.67692 10905 ft 361 kts
2026-05-04 10:59 41.63287 -8.67493 11050 ft 362 kts
2026-05-04 11:00 41.65777 -8.66863 11573 ft 367 kts
2026-05-04 11:01 41.83923 -8.62230 15175 ft 391 kts
2026-05-04 11:02 41.86607 -8.61545 15653 ft 395 kts
2026-05-04 11:02 41.89318 -8.60852 16191 ft 398 kts
2026-05-04 11:05 42.29630 -8.52761 21913 ft 437 kts
2026-05-04 11:06 42.32654 -8.52269 22285 ft 440 kts
2026-05-04 11:06 42.35749 -8.51763 22646 ft 443 kts
2026-05-04 11:06 42.38774 -8.51270 23021 ft 446 kts
2026-05-04 11:06 42.41865 -8.50770 23394 ft 448 kts
2026-05-04 11:08 42.63075 -8.41713 25484 ft 473 kts 23°
2026-05-04 11:10 42.84171 -8.27940 27502 ft 488 kts 23°
2026-05-04 11:12 43.05839 -8.13641 29217 ft 499 kts 23°
2026-05-04 11:12 43.08922 -8.11595 29529 ft 498 kts 23°
2026-05-04 11:12 43.12079 -8.09499 29854 ft 498 kts 23°
2026-05-04 11:12 43.15150 -8.07461 30145 ft 497 kts 23°
2026-05-04 11:13 43.18263 -8.05392 30391 ft 497 kts 23°
2026-05-04 11:13 43.21373 -8.03321 30631 ft 497 kts 23°
2026-05-04 11:13 43.24475 -8.01256 30867 ft 497 kts 23°
2026-05-04 11:13 43.27584 -7.99184 31115 ft 496 kts 23°
2026-05-04 11:14 43.29677 -7.97789 31287 ft 496 kts 23°
2026-05-04 11:14 43.33991 -7.94909 31612 ft 495 kts 23°
2026-05-04 11:14 43.37090 -7.92836 31847 ft 495 kts 23°
2026-05-04 11:16 43.57608 -7.79027 33382 ft 491 kts 23°
2026-05-04 11:16 43.60671 -7.76953 33601 ft 490 kts 23°
2026-05-04 11:16 43.63731 -7.74884 33820 ft 490 kts 23°
2026-05-04 11:17 43.66791 -7.72815 34009 ft 490 kts 23°
2026-05-04 11:17 43.69841 -7.70754 34055 ft 488 kts 23°
2026-05-04 11:19 43.94145 -7.54200 34052 ft 486 kts 24°
2026-05-04 11:19 44.00207 -7.50049 34069 ft 486 kts 24°
2026-05-04 11:20 44.06270 -7.45893 34076 ft 486 kts 24°
2026-05-04 11:20 44.12299 -7.41744 34081 ft 486 kts 24°
2026-05-04 11:22 44.36509 -7.24990 34071 ft 485 kts 25°
2026-05-04 11:23 44.42550 -7.20787 34065 ft 485 kts 25°
2026-05-04 11:25 44.63667 -7.05997 34064 ft 484 kts 25°
2026-05-04 11:25 44.69692 -7.01769 34062 ft 484 kts 25°
2026-05-04 11:27 44.95206 -6.80199 34029 ft 471 kts 35°
2026-05-04 11:28 45.00537 -6.74823 34025 ft 471 kts 35°
2026-05-04 11:28 45.05829 -6.69456 34030 ft 472 kts 36°
2026-05-04 11:29 45.11161 -6.64029 34035 ft 472 kts 36°
2026-05-04 11:29 45.16488 -6.58599 34034 ft 472 kts 36°
2026-05-04 11:33 45.53738 -6.20267 34038 ft 472 kts 36°
2026-05-04 11:33 45.59052 -6.14742 34034 ft 472 kts 36°
2026-05-04 11:34 45.64359 -6.09209 34033 ft 472 kts 36°
2026-05-04 11:34 45.69666 -6.03679 34034 ft 472 kts 36°
2026-05-04 11:35 45.74973 -5.98144 34033 ft 472 kts 37°
2026-05-04 11:35 45.80273 -5.92594 34029 ft 472 kts 37°
2026-05-04 11:36 45.85567 -5.87011 34026 ft 472 kts 37°
2026-05-04 11:36 45.90823 -5.81452 34030 ft 472 kts 37°
2026-05-04 11:37 45.96151 -5.75821 34029 ft 473 kts 37°
2026-05-04 11:37 46.01451 -5.70214 34031 ft 473 kts 37°
2026-05-04 11:38 46.06719 -5.64627 34026 ft 473 kts 37°
2026-05-04 11:38 46.12052 -5.58957 34030 ft 473 kts 37°
2026-05-04 11:39 46.17308 -5.53350 34031 ft 473 kts 37°
2026-05-04 11:41 46.35829 -5.33466 34027 ft 474 kts 38°
2026-05-04 11:41 46.41120 -5.27772 34032 ft 474 kts 38°
2026-05-04 11:42 46.46403 -5.22054 34028 ft 474 kts 38°
2026-05-04 11:42 46.51681 -5.16326 34037 ft 474 kts 38°
2026-05-04 11:43 46.56964 -5.10594 34036 ft 474 kts 38°
2026-05-04 11:43 46.62237 -5.04851 34030 ft 473 kts 38°
2026-05-04 11:44 46.67497 -4.99096 34034 ft 473 kts 38°
2026-05-04 11:44 46.72757 -4.93328 34039 ft 473 kts 38°
2026-05-04 11:45 46.78021 -4.87566 34039 ft 473 kts 38°
2026-05-04 11:45 46.83266 -4.81800 34037 ft 472 kts 38°
2026-05-04 11:46 46.88507 -4.76012 34037 ft 472 kts 38°
2026-05-04 11:46 46.93739 -4.70227 34043 ft 471 kts 38°
2026-05-04 11:47 46.98965 -4.64421 34037 ft 471 kts 38°
2026-05-04 11:47 47.04183 -4.58624 34039 ft 471 kts 38°
2026-05-04 11:48 47.09362 -4.52858 34038 ft 470 kts 38°
2026-05-04 11:48 47.14571 -4.47047 34035 ft 470 kts 38°
2026-05-04 11:49 47.19770 -4.41220 34029 ft 470 kts 38°
2026-05-04 11:49 47.24960 -4.35376 34033 ft 470 kts 38°
2026-05-04 11:50 47.30148 -4.29525 34028 ft 469 kts 38°
2026-05-04 11:50 47.35328 -4.23681 34029 ft 469 kts 38°
2026-05-04 11:51 47.40512 -4.17821 34025 ft 469 kts 38°
2026-05-04 11:51 47.45688 -4.11945 34024 ft 469 kts 38°
2026-05-04 11:52 47.50860 -4.06067 34022 ft 469 kts 38°
2026-05-04 11:52 47.56028 -4.00185 34020 ft 469 kts 38°
2026-05-04 11:53 47.61197 -3.94282 34019 ft 469 kts 38°
2026-05-04 11:53 47.66318 -3.88413 34017 ft 469 kts 39°
2026-05-04 11:55 47.86942 -3.64639 34015 ft 469 kts 39°
2026-05-04 11:56 47.92087 -3.58669 34018 ft 469 kts 39°
2026-05-04 11:56 47.97217 -3.52688 34014 ft 469 kts 39°
2026-05-04 11:57 48.02350 -3.46681 34008 ft 468 kts 39°
2026-05-04 11:57 48.07481 -3.40679 34004 ft 468 kts 39°
2026-05-04 11:58 48.12609 -3.34681 34007 ft 468 kts 39°
2026-05-04 11:58 48.17740 -3.28661 34001 ft 468 kts 39°
2026-05-04 11:59 48.22854 -3.22621 34005 ft 468 kts 40°
2026-05-04 11:59 48.27968 -3.16561 34010 ft 468 kts 40°
2026-05-04 12:00 48.33080 -3.10510 34011 ft 468 kts 40°
2026-05-04 12:00 48.38187 -3.04444 34013 ft 468 kts 40°
2026-05-04 12:01 48.43286 -2.98363 34013 ft 468 kts 40°
2026-05-04 12:02 48.61124 -2.76976 34013 ft 468 kts 40°
2026-05-04 12:03 48.65358 -2.71880 34018 ft 468 kts 40°
2026-05-04 12:03 48.70452 -2.65728 34021 ft 469 kts 40°
2026-05-04 12:04 48.75539 -2.59552 34025 ft 469 kts 40°
2026-05-04 12:04 48.79787 -2.54422 34024 ft 470 kts 40°
2026-05-04 12:05 48.82689 -2.51007 34026 ft 470 kts 39°
2026-05-04 12:05 48.87896 -2.44992 34034 ft 470 kts 39°
2026-05-04 12:06 48.93102 -2.38949 34032 ft 471 kts 39°
2026-05-04 12:06 48.98283 -2.32859 34038 ft 471 kts 40°
2026-05-04 12:07 49.03459 -2.26750 34036 ft 471 kts 40°
2026-05-04 12:07 49.08637 -2.20635 34036 ft 471 kts 40°
2026-05-04 12:08 49.13808 -2.14503 34039 ft 471 kts 40°
2026-05-04 12:08 49.18980 -2.08366 34041 ft 471 kts 40°
2026-05-04 12:09 49.24388 -2.02703 34041 ft 473 kts 30°
2026-05-04 12:09 49.30146 -1.97836 34038 ft 473 kts 30°
2026-05-04 12:10 49.35914 -1.92942 34038 ft 474 kts 30°
2026-05-04 12:10 49.41675 -1.88029 34036 ft 473 kts 30°
2026-05-04 12:11 49.47391 -1.83154 34037 ft 473 kts 30°
2026-05-04 12:11 49.53137 -1.78247 34040 ft 472 kts 30°
2026-05-04 12:12 49.58892 -1.73347 34042 ft 472 kts 27°
2026-05-04 12:12 49.65005 -1.69656 34040 ft 473 kts 20°
2026-05-04 12:14 49.89894 -1.55864 30635 ft 478 kts 21°
2026-05-04 12:15 49.93018 -1.54125 30049 ft 476 kts 21°
2026-05-04 12:15 49.96133 -1.52385 29425 ft 473 kts 21°
2026-05-04 12:15 49.99197 -1.50668 28888 ft 467 kts 21°
2026-05-04 12:15 50.02260 -1.48998 28333 ft 463 kts 19°
2026-05-04 12:16 50.05306 -1.47455 27789 ft 458 kts 18°
2026-05-04 12:16 50.08333 -1.46005 27245 ft 453 kts 17°
2026-05-04 12:16 50.11342 -1.44596 26714 ft 449 kts 17°
2026-05-04 12:16 50.14313 -1.43202 26186 ft 445 kts 17°
2026-05-04 12:17 50.17262 -1.41793 25659 ft 440 kts 17°
2026-05-04 12:17 50.20175 -1.40380 25145 ft 436 kts 17°
2026-05-04 12:17 50.23054 -1.38966 24636 ft 433 kts 17°
2026-05-04 12:17 50.25914 -1.37547 24143 ft 429 kts 17°
2026-05-04 12:18 50.28744 -1.36141 23651 ft 425 kts 17°
2026-05-04 12:18 50.31544 -1.34752 23136 ft 420 kts 17°
2026-05-04 12:18 50.34309 -1.33386 22675 ft 414 kts 17°
2026-05-04 12:18 50.37035 -1.32040 22217 ft 408 kts 17°
2026-05-04 12:19 50.39721 -1.30708 21771 ft 402 kts 17°
2026-05-04 12:19 50.42375 -1.29387 21338 ft 397 kts 18°
2026-05-04 12:19 50.44987 -1.28092 20904 ft 392 kts 18°
2026-05-04 12:19 50.47570 -1.26811 20470 ft 386 kts 19°
2026-05-04 12:20 50.50007 -1.25157 20023 ft 381 kts 30°
2026-05-04 12:20 50.52215 -1.22912 19587 ft 375 kts 39°
2026-05-04 12:20 50.54204 -1.20306 19136 ft 370 kts 41°
2026-05-04 12:20 50.56169 -1.17712 18692 ft 367 kts 41°
2026-05-04 12:21 50.58095 -1.15112 18193 ft 364 kts 47°
2026-05-04 12:21 50.59839 -1.12246 17684 ft 360 kts 49°
2026-05-04 12:21 50.61528 -1.09373 17227 ft 355 kts 49°
2026-05-04 12:21 50.63184 -1.06520 16772 ft 351 kts 49°
2026-05-04 12:22 50.64819 -1.03695 16322 ft 348 kts 49°
2026-05-04 12:22 50.66441 -1.00889 15876 ft 344 kts 49°
2026-05-04 12:22 50.68051 -0.98103 15430 ft 342 kts 49°
2026-05-04 12:22 50.69646 -0.95342 14977 ft 340 kts 49°
2026-05-04 12:23 50.71234 -0.92596 14543 ft 338 kts 49°
2026-05-04 12:23 50.72817 -0.89864 14101 ft 336 kts 49°
2026-05-04 12:23 50.74387 -0.87165 13637 ft 333 kts 48°
2026-05-04 12:23 50.75938 -0.84495 13421 ft 324 kts 49°
2026-05-04 12:24 50.77438 -0.81905 13242 ft 315 kts 49°
2026-05-04 12:24 50.78902 -0.79377 12905 ft 310 kts 49°
2026-05-04 12:24 50.80272 -0.76773 12506 ft 306 kts 58°
2026-05-04 12:24 50.81220 -0.73787 12118 ft 302 kts 72°
2026-05-04 12:25 50.81704 -0.70584 11718 ft 299 kts 82°
2026-05-04 12:25 50.82071 -0.67347 11334 ft 298 kts 81°
2026-05-04 12:25 50.82441 -0.64141 10961 ft 296 kts 81°
2026-05-04 12:25 50.82816 -0.60934 10561 ft 295 kts 80°
2026-05-04 12:26 50.83347 -0.58462 10194 ft 299 kts 60°
2026-05-04 12:26 50.84559 -0.55815 9930 ft 295 kts 52°
2026-05-04 12:26 50.85852 -0.53316 9559 ft 293 kts 51°
2026-05-04 12:26 50.87154 -0.50854 9159 ft 291 kts 47°
2026-05-04 12:27 50.88786 -0.49023 8784 ft 288 kts 21°
2026-05-04 12:27 50.90741 -0.48531 8405 ft 285 kts 354°
2026-05-04 12:27 50.92659 -0.49046 7985 ft 284 kts 347°
2026-05-04 12:27 50.94590 -0.49739 7611 ft 283 kts 346°
2026-05-04 12:28 50.96484 -0.50441 7394 ft 276 kts 346°
2026-05-04 12:28 50.98318 -0.51127 7267 ft 265 kts 346°
2026-05-04 12:28 51.00060 -0.51780 7136 ft 249 kts 346°
2026-05-04 12:28 51.01690 -0.52391 7033 ft 231 kts 346°
2026-05-04 12:29 51.03218 -0.52765 6882 ft 215 kts
2026-05-04 12:29 51.04574 -0.51976 6608 ft 207 kts 34°
2026-05-04 12:29 51.05717 -0.50592 6204 ft 206 kts 40°
2026-05-04 12:29 51.06790 -0.49155 5832 ft 204 kts 40°
2026-05-04 12:30 51.07882 -0.47669 5386 ft 204 kts 41°
2026-05-04 12:30 51.08951 -0.46207 4818 ft 209 kts 41°
2026-05-04 12:30 51.10087 -0.44646 4102 ft 220 kts 41°
2026-05-04 12:30 51.11182 -0.42956 3547 ft 219 kts 55°
2026-05-04 12:31 51.11794 -0.40772 3025 ft 217 kts 77°
2026-05-04 12:31 51.12126 -0.38393 2550 ft 222 kts 78°
2026-05-04 12:31 51.12456 -0.35996 2196 ft 215 kts 77°
2026-05-04 12:31 51.12771 -0.33738 1915 ft 203 kts 77°
2026-05-04 12:32 51.13062 -0.31652 1659 ft 187 kts 77°
2026-05-04 12:32 51.13586 -0.27889 1175 ft 157 kts 77°
2026-05-04 12:32 51.13815 -0.26248 945 ft 149 kts 77°
2026-05-04 12:33 51.14033 -0.24665 765 ft 144 kts 77°
2026-05-04 12:33 51.14248 -0.23110 538 ft 142 kts 77°
2026-05-04 12:33 51.14462 -0.21581 365 ft 141 kts 79°
2026-05-04 12:33 51.14672 -0.20059 223 ft 138 kts 78°
2026-05-04 12:34 51.14855 -0.18742 210 ft 101 kts 77°
2026-05-04 12:34 51.14948 -0.18078 211 ft 30 kts 70°
2026-05-04 12:34 51.15026 -0.17864 210 ft 17 kts 54°
2026-05-04 12:34 51.15110 -0.17760 209 ft 15 kts
2026-05-04 12:35 51.15168 -0.17752 205 ft 8 kts
2026-05-04 12:35 51.15185 -0.17691 211 ft 7 kts 78°
2026-05-04 12:35 51.15196 -0.17608 205 ft 8 kts 77°
2026-05-04 12:35 51.15209 -0.17511 205 ft 7 kts 78°
2026-05-04 12:36 51.15217 -0.17455 217 ft 4 kts 78°
2026-05-04 12:36 51.15219 -0.17441 212 ft 0 kts 78°
2026-05-04 12:38 51.15220 -0.17429 205 ft 4 kts 78°
2026-05-04 12:38 51.15230 -0.17360 205 ft 9 kts 78°
2026-05-04 12:39 51.15244 -0.17252 205 ft 11 kts 78°
2026-05-04 12:39 51.15261 -0.17128 216 ft 12 kts 77°
2026-05-04 12:39 51.15281 -0.16989 205 ft 14 kts 77°
2026-05-04 12:39 51.15302 -0.16836 205 ft 15 kts 77°
2026-05-04 12:40 51.15336 -0.16710 213 ft 11 kts 31°
2026-05-04 12:40 51.15403 -0.16718 214 ft 6 kts 351°
2026-05-04 12:40 51.15442 -0.16704 210 ft 6 kts 15°
2026-05-04 12:40 51.15485 -0.16712 205 ft 6 kts 349°
2026-05-04 12:41 51.15502 -0.16718 214 ft 1 kts 348°
2026-05-04 12:41 51.15512 -0.16722 211 ft 1 kts 347°
2026-05-04 12:41 51.15515 -0.16722 210 ft 0 kts 347°